WGS F5 (USA 243)

Last updated on Fri Jul 11 2025 00:02:44 GMT+0000 (Coordinated Universal Time)

1 39168U 13024A 25191.47988013 -.00000272 00000+0 00000+0 0 9995 2 39168 0.0179 21.9880 0000163 45.7153 341.2053 1.00271931 43749
UTC large
Height (km)
Speed (km/s)
/
Latitude / Longitude
Inclination (degrees)
Orbital Period (minutes)
Azimuth
Elevation
Range (km)
Doppler Factor

Next 0 passes for location: London (51.5072 / 0.1276)

Sorry there are no passes over London.